TANSUO 1

导读

TANSUO 1(探索一号,又名试验一号SY-1)是中国于2004年4月18日08时在西昌卫星发射中心发射的技术试验卫星,由清华大学与航天团队联合研制,属微小型纳卫星范畴,质量不足25千克。 该卫星主要承担微纳卫星关键技术验证任务,涵盖对地成像试验、微型器件搭载、轨道控制及软件在轨试验等项目,发射后按时完成全部既定试验目标,为中国微纳卫星技术发展积累了关键工程经验,NORAD编号为28220。

基本信息
目录编号:
28220
目录名称:
TANSUO 1
国际标识:
2004-012A
轨道中心:
EARTH
卫星名称:
TANSUO 1
卫星全名:
--
卫星状态:
在轨 (已飞行8174 天)
发射日期:
2004-04-18 UTC
国别 :
中国 (CN)
星等 :
--
轨道信息
数据来源 国际轨道数据
星历时间: 2026-09-04T00:27:05+0800
13小时前
查看轨道信息
半长轴: 6837.205km
偏心率: 0.0006624
轨道倾角: 97.864°
近地点辐角 100.905°
升交点赤经 329.946°
平近点角 259.294°
近地点: 454.539km
远地点: 463.597km
周期: 93.773分钟
每日圈数: 15.356239
详细信息
使用方式:
暂无
2D轨道图
3D轨道图
轨道高度分析图
轨道倾角分析图
轨道综合分析图
查看轨道综合分析图
交会数据列表
事件ID 空间交会对象 最接近时刻(TCA) 交会距离 交会风险概率(CRP) 交会风险指数(CRI) 操作
CDM_260906-082902-822005-299821
TANSUO 1 (28220)
2026-09-06T
08:29:25+0000
0.484 km
远距离
1.317899E-4 高风险 0.77
CDM_260904-200002-822006-920021
TANSUO 1 (28220)
2026-09-04T
20:00:11+0000
0.691 km
远距离
8.641853E-5 中风险 0.74
CDM_260905-065902-822006-276621
TANSUO 1 (28220)
2026-09-05T
06:59:00+0000
0.969 km
远距离
2.83071E-5 中风险 0.64
CDM_260905-074602-822005-420221
TANSUO 1 (28220)
2026-09-05T
07:46:04+0000
0.978 km
远距离
2.213165E-5 中风险 0.62
CDM_260904-233402-822006-468721
TANSUO 1 (28220)
2026-09-04T
23:34:13+0000
0.932 km
远距离
2.106409E-5 中风险 0.61
CDM_260904-203802-822006-304521
TANSUO 1 (28220)
2026-09-04T
20:38:21+0000
1.204 km
极远距离
1.420263E-5 中风险 0.58
CDM_260905-100202-822006-587621
TANSUO 1 (28220)
2026-09-05T
10:02:25+0000
1.240 km
极远距离
1.265588E-5 中风险 0.57
CDM_260904-173002-822006-304923
TANSUO 1 (28220)
2026-09-04T
17:30:24+0000
1.336 km
极远距离
9.890646E-6 低风险 0.55
CDM_260905-065202-822005-785821
TANSUO 1 (28220)
2026-09-05T
06:52:31+0000
1.413 km
极远距离
8.116647E-6 低风险 0.53
CDM_260905-083102-822006-282421
TANSUO 1 (28220)
2026-09-05T
08:31:52+0000
1.539 km
极远距离
5.913712E-6 低风险 0.5